• In Deutschland
  • Länderverzeichnis
  • Für 7 Tage
  • Wassertemperatur
  • Satellitenkarten
  • Wetterkarte
  • Widgets
  • user-avatar
    Anmelden

    Stündliche Wetter Bayrischzell

    Heute, 24 Januar, Mittwoch

    Zeit Temperatur Niederschläge Wind Luftdruck Luftfeuchtigkeit
    00:00 -5°C° 0 mm 2 m/S 658 mmHg 76%
    01:00 -5°C° 0 mm 2 m/S 658 mmHg 74%
    02:00 -5°C° 0 mm 2 m/S 658 mmHg 72%
    03:00 -5°C° 0 mm 2 m/S 658 mmHg 71%
    04:00 -5°C° 0 mm 2 m/S 658 mmHg 70%
    05:00 -5°C° 0 mm 2 m/S 658 mmHg 69%
    06:00 -4°C° 0 mm 2 m/S 658 mmHg 69%
    07:00 -4°C° 0 mm 2 m/S 658 mmHg 68%
    08:00 -3°C° 0 mm 2 m/S 658 mmHg 70%
    09:00 -2°C° 0 mm 2 m/S 658 mmHg 72%
    10:00 +1°C° 0 mm 2 m/S 659 mmHg 74%
    11:00 +3°C° 0 mm 1 m/S 658 mmHg 78%
    12:00 +4°C° 0 mm 1 m/S 658 mmHg 82%
    13:00 +5°C° 0 mm 1 m/S 658 mmHg 86%
    14:00 +4°C° 0 mm 1 m/S 657 mmHg 86%
    15:00 +4°C° 0 mm 1 m/S 657 mmHg 85%
    16:00 +3°C° 0 mm 1 m/S 657 mmHg 85%
    17:00 +1°C° 0 mm 2 m/S 656 mmHg 82%
    18:00 -1°C° 0 mm 2 m/S 656 mmHg 79%
    19:00 -2°C° 0 mm 2 m/S 656 mmHg 76%
    20:00 -2°C° 0 mm 2 m/S 656 mmHg 75%
    21:00 -3°C° 0 mm 2 m/S 656 mmHg 73%
    22:00 -3°C° 0 mm 2 m/S 656 mmHg 72%
    23:00 -3°C° 0 mm 2 m/S 656 mmHg 72%

    Morgen, 25 Januar, Donnerstag

    Zeit Temperatur Niederschläge Wind Luftdruck Luftfeuchtigkeit
    00:00 -3°C° 0 mm 2 m/S 655 mmHg 71%
    01:00 -3°C° 0 mm 2 m/S 655 mmHg 71%
    02:00 -3°C° 0 mm 2 m/S 655 mmHg 70%
    03:00 -3°C° 0 mm 2 m/S 655 mmHg 70%
    04:00 -3°C° 0 mm 2 m/S 655 mmHg 70%
    05:00 -3°C° 0 mm 2 m/S 654 mmHg 70%
    06:00 -3°C° 0 mm 2 m/S 654 mmHg 70%
    07:00 -3°C° 0 mm 2 m/S 654 mmHg 70%
    08:00 -2°C° 0 mm 2 m/S 654 mmHg 72%
    09:00 -1°C° 0 mm 2 m/S 654 mmHg 74%
    10:00 +1°C° 0 mm 2 m/S 654 mmHg 76%
    11:00 +2°C° 0 mm 2 m/S 653 mmHg 78%
    12:00 +3°C° 0 mm 2 m/S 653 mmHg 81%
    13:00 +5°C° 0 mm 1 m/S 653 mmHg 84%
    14:00 +4°C° 0 mm 1 m/S 652 mmHg 85%
    15:00 +4°C° 0 mm 1 m/S 652 mmHg 87%
    16:00 +3°C° 0 mm 1 m/S 651 mmHg 89%
    17:00 +2°C° 0 mm 1 m/S 651 mmHg 88%
    18:00 +1°C° 0 mm 1 m/S 651 mmHg 87%
    19:00 -2°C° 0 mm 2 m/S 651 mmHg 87%
    20:00 -2°C° 0 mm 2 m/S 651 mmHg 86%
    21:00 -2°C° 0 mm 2 m/S 651 mmHg 86%
    22:00 -2°C° 0 mm 2 m/S 650 mmHg 86%
    23:00 -2°C° 0 mm 2 m/S 650 mmHg 85%

    übermorgen, 26 Januar, Freitag

    Zeit Temperatur Niederschläge Wind Luftdruck Luftfeuchtigkeit
    00:00 -2°C° 0 mm 2 m/S 650 mmHg 85%
    01:00 -2°C° 0 mm 2 m/S 650 mmHg 84%
    02:00 -2°C° 0 mm 2 m/S 649 mmHg 84%
    03:00 -2°C° 0 mm 2 m/S 649 mmHg 84%
    04:00 -2°C° 0 mm 2 m/S 649 mmHg 84%
    05:00 -2°C° 0 mm 2 m/S 649 mmHg 85%
    06:00 -2°C° 0 mm 2 m/S 649 mmHg 85%
    07:00 -2°C° 0 mm 2 m/S 649 mmHg 85%
    08:00 -2°C° 0 mm 2 m/S 649 mmHg 86%
    09:00 -1°C° 0 mm 2 m/S 649 mmHg 88%
    10:00 -1°C° 0 mm 2 m/S 650 mmHg 89%
    11:00 +1°C° 0 mm 2 m/S 650 mmHg 90%
    12:00 +1°C° 0 mm 2 m/S 650 mmHg 91%
    13:00 +2°C° 0 mm 2 m/S 650 mmHg 92%
    14:00 +1°C° 0,1 mm 2 m/S 650 mmHg 93%
    15:00 +1°C° 0,1 mm 2 m/S 650 mmHg 94%
    16:00 +1°C° 0,1 mm 2 m/S 650 mmHg 95%
    17:00 -1°C° 0,4 mm 2 m/S 651 mmHg 96%
    18:00 +1°C° 0,4 mm 1 m/S 651 mmHg 96%
    19:00 0°C° 0,4 mm 1 m/S 651 mmHg 97%
    20:00 0°C° 0,7 mm 1 m/S 651 mmHg 97%
    21:00 0°C° 0,7 mm 1 m/S 652 mmHg 97%
    22:00 0°C° 0,7 mm 1 m/S 652 mmHg 97%
    23:00 0°C° 0,9 mm 1 m/S 652 mmHg 97%

    27 Januar, Samstag

    Zeit Temperatur Niederschläge Wind Luftdruck Luftfeuchtigkeit
    00:00 0°C° 0,9 mm 1 m/S 653 mmHg 97%
    01:00 -2°C° 0,9 mm 2 m/S 653 mmHg 97%
    02:00 0°C° 1 mm 1 m/S 653 mmHg 97%
    03:00 -1°C° 1 mm 1 m/S 653 mmHg 97%
    04:00 -1°C° 1 mm 1 m/S 653 mmHg 97%
    05:00 -1°C° 0,6 mm 1 m/S 653 mmHg 97%
    06:00 -1°C° 0,6 mm 1 m/S 654 mmHg 97%
    07:00 -1°C° 0,6 mm 1 m/S 654 mmHg 97%
    08:00 -1°C° 0,5 mm 1 m/S 655 mmHg 97%
    09:00 -1°C° 0,5 mm 1 m/S 655 mmHg 96%
    10:00 0°C° 0,5 mm 1 m/S 656 mmHg 96%
    11:00 0°C° 0,2 mm 1 m/S 656 mmHg 95%
    12:00 +1°C° 0,2 mm 1 m/S 657 mmHg 94%
    13:00 0°C° 0,2 mm 0 m/S 657 mmHg 93%
    14:00 +1°C° 0 mm 1 m/S 657 mmHg 94%
    15:00 +1°C° 0 mm 1 m/S 658 mmHg 94%
    16:00 +1°C° 0 mm 1 m/S 658 mmHg 95%
    17:00 +1°C° 0 mm 1 m/S 658 mmHg 95%
    18:00 0°C° 0 mm 1 m/S 659 mmHg 96%
    19:00 -1°C° 0 mm 1 m/S 659 mmHg 96%
    20:00 -1°C° 0 mm 1 m/S 660 mmHg 96%
    21:00 -1°C° 0 mm 1 m/S 660 mmHg 95%
    22:00 -1°C° 0 mm 1 m/S 660 mmHg 95%
    23:00 -2°C° 0 mm 1 m/S 660 mmHg 93%

    28 Januar, Sonntag

    Zeit Temperatur Niederschläge Wind Luftdruck Luftfeuchtigkeit
    00:00 -2°C° 0 mm 1 m/S 661 mmHg 92%
    01:00 -3°C° 0 mm 1 m/S 661 mmHg 90%
    02:00 -3°C° 0 mm 1 m/S 661 mmHg 90%
    03:00 -3°C° 0 mm 1 m/S 661 mmHg 89%
    04:00 -4°C° 0 mm 0 m/S 661 mmHg 89%
    05:00 -3°C° 0 mm 1 m/S 661 mmHg 88%
    06:00 -3°C° 0 mm 1 m/S 662 mmHg 87%
    07:00 -3°C° 0 mm 1 m/S 662 mmHg 87%
    08:00 -2°C° 0 mm 1 m/S 663 mmHg 86%
    09:00 -2°C° 0 mm 0 m/S 663 mmHg 85%
    10:00 0°C° 0 mm 0 m/S 664 mmHg 85%
    11:00 0°C° 0 mm 0 m/S 664 mmHg 86%
    12:00 +1°C° 0 mm 0 m/S 664 mmHg 87%
    13:00 +2°C° 0 mm 0 m/S 664 mmHg 89%
    14:00 +1°C° 0 mm 0 m/S 664 mmHg 90%
    15:00 +1°C° 0 mm 0 m/S 663 mmHg 91%
    16:00 +1°C° 0 mm 0 m/S 663 mmHg 93%
    17:00 0°C° 0 mm 0 m/S 663 mmHg 92%
    18:00 -2°C° 0 mm 0 m/S 663 mmHg 92%
    19:00 -3°C° 0 mm 0 m/S 663 mmHg 92%
    20:00 -2°C° 0 mm 1 m/S 663 mmHg 89%
    21:00 -2°C° 0 mm 1 m/S 663 mmHg 87%
    22:00 -2°C° 0 mm 1 m/S 664 mmHg 85%
    23:00 -2°C° 0 mm 1 m/S 663 mmHg 84%

    29 Januar, Montag

    Zeit Temperatur Niederschläge Wind Luftdruck Luftfeuchtigkeit
    00:00 -2°C° 0 mm 1 m/S 663 mmHg 82%
    01:00 -3°C° 0 mm 1 m/S 663 mmHg 81%
    02:00 -3°C° 0 mm 1 m/S 663 mmHg 80%
    03:00 -3°C° 0 mm 1 m/S 663 mmHg 79%
    04:00 -3°C° 0 mm 1 m/S 663 mmHg 78%
    05:00 -3°C° 0 mm 1 m/S 663 mmHg 77%
    06:00 -3°C° 0 mm 1 m/S 663 mmHg 76%
    07:00 -3°C° 0 mm 1 m/S 663 mmHg 76%
    08:00 -2°C° 0 mm 1 m/S 663 mmHg 76%
    09:00 0°C° 0 mm 1 m/S 663 mmHg 75%
    10:00 +1°C° 0 mm 1 m/S 663 mmHg 75%
    11:00 +2°C° 0 mm 1 m/S 663 mmHg 77%
    12:00 +3°C° 0 mm 1 m/S 663 mmHg 79%
    13:00 +4°C° 0 mm 1 m/S 663 mmHg 80%
    14:00 +3°C° 0 mm 1 m/S 663 mmHg 82%
    15:00 +2°C° 0 mm 0 m/S 662 mmHg 84%
    16:00 +1°C° 0 mm 0 m/S 662 mmHg 86%
    17:00 +1°C° 0 mm 1 m/S 662 mmHg 85%
    18:00 0°C° 0 mm 1 m/S 662 mmHg 85%
    19:00 -2°C° 0 mm 1 m/S 661 mmHg 85%
    20:00 -2°C° 0 mm 1 m/S 661 mmHg 83%
    21:00 -2°C° 0 mm 1 m/S 661 mmHg 82%
    22:00 -2°C° 0 mm 1 m/S 661 mmHg 81%
    23:00 -3°C° 0 mm 1 m/S 661 mmHg 80%
    Mehr zeigen